DW6536 Weather Reports


Display with metric or nautical units.
time (UTC)temp
F
wind
direction
speed
MPH
gust
MPH
rain 1hr
in
rain 24hr
in
rain mn
in
humidity
%
barometer
mb
20210728173021 93 156 1.0 0.0 0.00 0.00 0.00 52 1015.4
20210728171532 93 156 1.0 0.0 0.00 0.00 0.00 52 1015.6
20210728170054 93 156 0.0 0.0 0.00 0.00 0.00 55 1015.6
20210728164518 91 156 0.0 0.0 0.00 0.00 0.00 60 1015.7
20210728163015 89 156 1.0 0.0 0.00 0.00 0.00 61 1015.8
20210728161515 90 156 1.0 0.0 0.00 0.00 0.00 60 1015.9
20210728160015 89 156 1.0 0.0 0.00 0.00 0.00 61 1015.8
20210728154503 88 156 1.0 0.0 0.00 0.00 0.00 62 1015.8
20210728153316 87 156 1.0 0.0 0.00 0.00 0.00 63 1015.7
20210728153003 87 156 1.0 0.0 0.00 0.00 0.00 64 1015.7
20210728151642 86 156 0.0 0.0 0.00 0.00 0.00 65 1015.7
20210728150124 83 156 0.0 0.0 0.00 0.00 0.00 60 1015.7
20210728144623 81 156 0.0 0.0 0.00 0.00 0.00 53 1015.8
20210728143212 80 156 0.0 0.0 0.00 0.00 0.00 49 1015.8
20210728141641 80 156 0.0 0.0 0.00 0.00 0.00 43 1015.7
20210728140148 79 156 0.0 0.0 0.00 0.00 0.00 40 1015.7
20210728134613 79 156 0.0 0.0 0.00 0.00 0.00 38 1015.4
20210728133113 78 156 0.0 0.0 0.00 0.00 0.00 34 1015.5
20210728131625 78 156 0.0 0.0 0.00 0.00 0.00 31 1015.4
20210728130234 78 156 0.0 0.0 0.00 0.00 0.00 30 1015.3
20210728124622 77 156 0.0 0.0 0.00 0.00 0.00 31 1015.2
20210728123130 77 156 0.0 0.0 0.00 0.00 0.00 31 1015.2
20210728121604 77 156 0.0 0.0 0.00 0.00 0.00 33 1015.1
20210728120230 77 156 0.0 0.0 0.00 0.00 0.00 36 1015.0
20210728114547 77 156 0.0 0.0 0.00 0.00 0.00 39 1014.9
20210728113213 78 156 0.0 0.0 0.00 0.00 0.00 41 1014.8
20210728111622 78 156 0.0 0.0 0.00 0.00 0.00 44 1014.7
20210728110047 78 156 0.0 0.0 0.00 0.00 0.00 46 1014.4
20210728104554 79 156 0.0 0.0 0.00 0.00 0.00 47 1014.5
20210728103109 79 156 0.0 0.0 0.00 0.00 0.00 48 1014.3
20210728101601 79 156 0.0 0.0 0.00 0.00 0.00 50 1014.1
20210728100027 79 156 0.0 0.0 0.00 0.00 0.00 50 1014.0
20210728094542 79 156 0.0 0.0 0.00 0.00 0.00 51 1014.0
20210728093055 79 156 0.0 0.0 0.00 0.00 0.00 51 1013.9
20210728091601 79 156 0.0 0.0 0.00 0.00 0.00 52 1013.6
20210728090018 80 156 0.0 0.0 0.00 0.00 0.00 54 1013.4
20210728084525 80 156 0.0 0.0 0.00 0.00 0.00 56 1013.5
20210728083045 80 156 0.0 0.0 0.00 0.00 0.00 58 1013.5
20210728081530 80 156 0.0 0.0 0.00 0.00 0.00 59 1013.4
20210728080012 80 156 0.0 0.0 0.00 0.00 0.00 59 1013.4
20210728074538 81 156 0.0 0.0 0.00 0.00 0.00 60 1013.5
20210728073013 81 156 0.0 0.0 0.00 0.00 0.00 61 1013.5
20210728071536 81 156 0.0 0.0 0.00 0.00 0.00 60 1013.6
20210728070007 81 156 0.0 0.0 0.00 0.00 0.00 61 1013.6
20210728064513 82 156 0.0 0.0 0.00 0.00 0.00 61 1013.7
20210728063005 82 156 0.0 0.0 0.00 0.00 0.00 62 1013.7
20210728061504 81 156 0.0 0.0 0.00 0.00 0.00 64 1013.7
20210728060003 81 156 0.0 0.0 0.00 0.00 0.00 64 1013.6
20210728054510 81 156 0.0 0.0 0.00 0.00 0.00 64 1013.7
20210728053140 81 156 0.0 0.0 0.00 0.00 0.00 65 1013.9
20210728051711 82 156 0.0 0.0 0.00 0.00 0.00 65 1013.9
20210728050141 82 156 0.0 0.0 0.00 0.00 0.00 65 1013.9
20210728044705 82 156 0.0 0.0 0.00 0.00 0.00 66 1013.9
20210728043224 82 156 0.0 0.0 0.00 0.00 0.00 65 1014.0
20210728041631 83 156 0.0 0.0 0.00 0.00 0.00 65 1014.1
20210728040122 83 156 0.0 0.0 0.00 0.00 0.00 65 1013.9
20210728034713 83 156 0.0 0.0 0.00 0.00 0.00 64 1013.7
20210728033127 83 156 0.0 0.0 0.00 0.00 0.00 64 1013.5
20210728031630 82 156 0.0 0.0 0.00 0.00 0.00 64 1013.4
20210728030112 83 156 0.0 0.0 0.00 0.00 0.00 63 1013.1
20210728024727 83 156 0.0 0.0 0.00 0.00 0.00 62 1012.8
20210728023117 84 156 0.0 0.0 0.00 0.00 0.00 60 1012.5
20210728021649 85 156 0.0 0.0 0.00 0.00 0.00 58 1012.4
20210728020213 86 156 0.0 0.0 0.00 0.00 0.00 56 1012.5
20210728014701 87 156 0.0 0.0 0.00 0.00 0.00 54 1012.5
20210728013130 88 156 0.0 0.0 0.00 0.00 0.00 51 1012.1
20210728011626 89 156 0.0 0.0 0.00 0.00 0.00 49 1012.1
20210728010219 90 156 0.0 0.0 0.00 0.00 0.00 46 1011.8
20210728004706 91 156 0.0 0.0 0.00 0.00 0.00 46 1011.4
20210728003109 92 156 0.0 0.0 0.00 0.00 0.00 45 1011.4
20210728001654 93 156 0.0 0.0 0.00 0.00 0.00 42 1011.4
20210728000130 94 156 0.0 0.0 0.00 0.00 0.00 41 1011.4
20210727234750 95 156 0.0 0.0 0.00 0.00 0.00 40 1011.4
20210727233052 95 156 0.0 0.0 0.00 0.00 0.00 38 1011.6
20210727231633 96 156 1.0 0.0 0.00 0.00 0.00 39 1011.5
20210727230101 97 157 0.0 0.0 0.00 0.00 0.00 38 1011.7
20210727224558 97 157 0.0 0.0 0.00 0.00 0.00 36 1011.6
20210727223101 95 157 0.0 0.0 0.00 0.00 0.00 36 1011.8
20210727221634 97 157 0.0 0.0 0.00 0.00 0.00 36 1011.9
20210727220139 96 157 0.0 0.0 0.00 0.00 0.00 37 1011.9
20210727214556 96 157 0.0 0.0 0.00 0.00 0.00 37 1012.1
20210727213126 95 157 1.0 0.0 0.00 0.00 0.00 38 1012.2
20210727211702 95 157 0.0 0.0 0.00 0.00 0.00 41 1012.3
20210727210136 96 158 0.0 0.0 0.00 0.00 0.00 41 1012.4
20210727204607 98 158 0.0 0.0 0.00 0.00 0.00 40 1012.6
20210727203051 97 158 0.0 0.0 0.00 0.00 0.00 39 1012.8
20210727201642 97 158 0.0 0.0 0.00 0.00 0.00 38 1013.0
20210727200058 96 158 0.0 0.0 0.00 0.00 0.00 37 1013.2
20210727194537 96 158 0.0 0.0 0.00 0.00 0.00 35 1013.4
20210727193111 95 159 0.0 0.0 0.00 0.00 0.00 38 1013.5
20210727191548 95 159 0.0 0.0 0.00 0.00 0.00 45 1013.5
20210727190055 96 159 0.0 0.0 0.00 0.00 0.00 41 1013.6
20210727184544 95 159 0.0 0.0 0.00 0.00 0.00 49 1013.7
20210727183109 94 159 0.0 0.0 0.00 0.00 0.00 49 1013.9
20210727181524 93 159 0.0 0.0 0.00 0.00 0.00 51 1014.0
20210727180031 93 159 0.0 0.0 0.00 0.00 0.00 54 1014.2
20210727174540 92 160 0.0 0.0 0.00 0.00 0.00 57 1014.3